Weather History for KOTM - October, 2013

Change the Weather History Date:

Tuesday, October 1, 2013

  Actual Average Record
Temperature  
Mean Temperature 71 °F 58 °F  
Max Temperature 84 °F 70 °F 94 °F (1937)
Min Temperature 58 °F 46 °F 32 °F (1958)
Degree Days  
Heating Degree Days 0 8  
Month to date heating degree days 0 8  
Since 1 July heating degree days 83 129  
Cooling Degree Days 6 1  
Month to date cooling degree days 6 1  
Year to date cooling degree days 987 928  
Growing Degree Days 22 (Base 50)    
Moisture  
Dew Point 58 °F    
Average Humidity 69    
Maximum Humidity 97    
Minimum Humidity 40    
Precipitation  
Precipitation 0.00 in 0.10 in 1.73 in (1911)
Month to date precipitation 0.00 0.10  
Year to date precipitation 29.61 30.59  
Sea Level Pressure  
Sea Level Pressure 29.89 in    
Wind  
Wind Speed 7 mph (SSW)    
Max Wind Speed 18 mph    
Max Gust Speed 23 mph    
Visibility 10 miles    
Events      
T = Trace of Precipitation, MM = Missing Value Source: NWS Daily Summary

Daily Weather History Graph

Daily Weather History Graph

Search for Another Location

Airport or City:

Trip Planner

Search our weather history database for the weather conditions in past years. The results will help you decide how hot, cold, wet, or windy it might be!

Date:

Astronomy

Oct. 01, 2013 Rise Set
Actual Time 7:06 AM CDT 6:51 PM CDT
Civil Twilight 6:39 AM CDT 7:18 PM CDT
Nautical Twilight 6:07 AM CDT 7:50 PM CDT
Astronomical Twilight 5:35 AM CDT 8:22 PM CDT
Moon 3:39 AM CDT (10/1) 4:56 PM CDT (10/1)
Length of Visible Light 12h 39m
Length of Day
11h 44m
Waning Crescent, 12% of the Moon is Illuminated
Oct 1
Waning Crescent
Oct 4
New
Oct 11
First Quarter
Oct 18
Full
Oct 26
Last Quarter

Hourly Weather History & Observations

Time (CDT) Temp. Heat Index Dew Point Humidity Pressure Visibility Wind Dir Wind Speed Gust Speed Precip Events Conditions
12:53 AM 61.0 °F - 57.9 °F 90% 29.84 in 10.0 mi SSW 5.8 mph - N/A   Clear
1:53 AM 59.0 °F - 57.0 °F 93% 29.84 in 10.0 mi South 6.9 mph - N/A   Clear
2:53 AM 60.1 °F - 57.9 °F 93% 29.84 in 10.0 mi South 8.1 mph - N/A   Clear
3:53 AM 60.1 °F - 57.9 °F 93% 29.83 in 10.0 mi South 8.1 mph - N/A   Clear
4:53 AM 60.1 °F - 57.9 °F 93% 29.84 in 10.0 mi South 8.1 mph - 0.01 in   Clear
5:53 AM 60.1 °F - 57.9 °F 93% 29.86 in 10.0 mi South 8.1 mph - N/A   Clear
6:53 AM 59.0 °F - 57.0 °F 93% 29.90 in 10.0 mi South 5.8 mph - N/A   Clear
7:53 AM 61.0 °F - 59.0 °F 93% 29.89 in 10.0 mi South 10.4 mph - N/A   Clear
8:53 AM 64.9 °F - 61.0 °F 87% 29.90 in 10.0 mi SSW 13.8 mph - N/A   Clear
9:53 AM 71.1 °F - 62.1 °F 73% 29.90 in 10.0 mi SSW 11.5 mph - N/A   Clear
10:53 AM 75.0 °F - 61.0 °F 62% 29.91 in 10.0 mi South 10.4 mph - N/A   Clear
11:53 AM 79.0 °F - 59.0 °F 50% 29.90 in 10.0 mi SW 9.2 mph - N/A   Clear
12:53 PM 81.0 °F 81.1 °F 57.9 °F 45% 29.89 in 10.0 mi WSW 13.8 mph 21.9 mph N/A   Clear
1:53 PM 82.0 °F 82.0 °F 57.9 °F 44% 29.87 in 10.0 mi SW 15.0 mph - N/A   Clear
2:53 PM 82.9 °F 82.6 °F 57.9 °F 42% 29.88 in 10.0 mi West 10.4 mph 18.4 mph N/A   Clear
3:53 PM 84.0 °F 83.5 °F 57.9 °F 41% 29.88 in 10.0 mi SW 12.7 mph 19.6 mph N/A   Clear
4:53 PM 82.9 °F 82.4 °F 57.0 °F 41% 29.89 in 10.0 mi West 10.4 mph - N/A   Clear
5:53 PM 81.0 °F 81.0 °F 57.0 °F 44% 29.89 in 10.0 mi WSW 8.1 mph - N/A   Clear
6:53 PM 73.9 °F - 57.9 °F 57% 29.91 in 10.0 mi Calm Calm - N/A   Clear
7:53 PM 72.0 °F - 57.9 °F 61% 29.93 in 10.0 mi Calm Calm - N/A   Clear
8:53 PM 69.1 °F - 59.0 °F 70% 29.94 in 10.0 mi Calm Calm - N/A   Clear
9:53 PM 66.0 °F - 59.0 °F 78% 29.95 in 10.0 mi Calm Calm - N/A   Clear
10:53 PM 64.9 °F - 57.9 °F 78% 29.95 in 10.0 mi Calm Calm - N/A   Clear
11:53 PM 64.0 °F - 59.0 °F 84% 29.96 in 10.0 mi Calm Calm - N/A   Clear